Temp
60 60 60 60 60 60 60 60 60 60 60 61 61 61 60 60 59 58 59 73 71 71 73 72 73 75 71 65 66 64 52 49 52 54 60 63 62 69 75 71 72 76 74 76 72
59 59 59 59 60 60 59 59 60 60 60 60 60 60 60 60 52 54 72 73 73 73 73 71 68 71 62 63 64 59 51 54 65 65 62 62 62 67 68 70 69 73 77 76 71
59 59 59 58 58 58 59 59 59 60 60 60 60 60 60 58 51 62 75 73 74 74 75 75 74 68 59 60 62 59 58 66 68 71 65 65 65 67 67 67 72 69 75 73 69
58 59 59 59 58 58 58 58 59 59 59 59 59 60 60 52 49 67 74 73 73 74 73 72 69 61 56 57 64 54 63 68 70 72 67 65 68 69 70 71 78 77 76 72 68
58 58 58 58 58 58 58 58 58 58 58 58 59 60 55 46 51 73 75 75 72 70 70 70 65 62 55 57 64 58 63 67 67 66 69 68 66 68 70 77 78 77 74 71 68
57 58 58 58 58 58 58 58 57 57 57 58 59 60 52 40 64 69 66 70 72 68 66 67 66 67 60 61 59 61 64 66 65 68 71 67 67 69 72 77 75 75 72 70 68
57 57 57 57 57 58 58 57 57 57 57 58 59 58 49 47 63 65 63 60 67 70 67 71 72 69 62 57 63 63 57 60 64 68 66 69 62 65 74 73 70 72 73 71 68
57 56 57 57 57 57 58 57 56 57 58 58 59 56 45 60 62 60 62 60 66 68 69 74 75 67 59 61 60 55 54 48 62 65 66 64 55 69 73 69 70 72 73 70 68
57 56 56 57 57 57 57 56 57 58 58 58 54 51 42 61 55 60 62 61 70 67 68 77 71 61 59 56 52 49 49 50 55 65 63 62 58 69 68 67 67 69 69 69 68
56 56 56 56 56 56 55 55 56 55 56 58 56 45 48 51 59 64 64 64 65 64 62 62 58 53 50 50 44 45 46 50 53 61 60 57 57 66 70 68 66 66 66 66 66
56 56 56 56 56 55 53 45 45 44 47 43 45 45 51 60 65 64 65 61 63 59 52 55 51 48 54 56 56 54 53 52 54 63 59 56 56 61 67 64 63 66 68 67 66
56 56 56 56 56 55 48 40 50 49 39 49 50 51 55 58 49 56 67 55 55 51 58 53 49 58 60 58 55 53 51 51 56 62 59 56 56 62 65 66 64 67 69 69 61
55 55 55 55 55 46 42 46 57 55 39 45 51 49 50 54 47 51 59 58 53 51 55 52 57 63 59 55 52 52 51 52 51 60 59 55 53 56 64 64 65 65 64 63 62
55 55 55 55 47 42 42 51 54 55 33 37 43 49 53 53 47 61 65 60 55 50 55 54 62 59 56 54 56 48 58 57 55 53 44 53 37 52 57 62 63 65 64 64 62
54 55 55 54 48 45 47 47 50 47 19 47 49 60 56 49 53 56 64 60 52 52 53 50 55 56 54 56 60 53 63 57 57 50 43 48 41 50 53 55 62 64 65 64 60
54 55 55 49 45 46 48 46 45 30 21 41 51 47 47 50 51 57 56 61 61 53 55 55 61 61 59 62 62 63 56 52 49 44 38 48 45 44 50 58 60 62 64 61 56
54 54 52 53 41 45 45 41 27 21 44 40 40 45 46 44 47 50 49 47 46 42 43 50 53 57 62 56 57 56 46 34 29 29 34 50 44 52 56 60 63 65 64 56 53
53 51 50 50 45 46 41 34 22 34 36 45 42 45 43 44 42 45 45 42 51 48 46 41 38 53 60 56 53 54 50 36 30 31 40 48 42 52 60 65 64 65 62 55 52
51 44 43 44 46 46 36 24 26 34 40 38 40 37 40 43 41 40 40 42 49 52 43 42 43 56 62 64 62 53 45 54 42 45 38 42 50 59 61 63 63 59 56 53 51
46 44 40 48 47 46 33 29 32 42 43 41 31 38 32 37 38 34 38 45 43 49 55 47 40 55 59 61 63 54 57 43 44 32 30 41 44 48 54 59 60 56 55 51 51
40 34 43 48 48 39 28 31 36 44 44 38 35 33 36 36 39 34 34 43 42 45 49 47 44 47 53 51 51 48 47 44 48 39 34 32 41 53 58 61 61 59 56 52 53
40 28 44 49 36 35 30 35 42 41 44 41 40 38 37 39 37 33 33 37 41 45 39 43 39 40 47 55 62 60 54 48 45 37 43 40 42 58 59 59 59 59 56 53 54
37 37 42 46 29 29 35 35 39 39 40 39 37 40 41 38 34 39 39 45 43 41 39 43 36 34 40 47 50 53 56 57 46 42 43 42 43 60 58 59 58 57 55 54 54
36 29 33 37 38 34 32 31 32 42 40 41 38 40 38 38 42 37 38 45 44 45 47 44 35 35 39 44 48 46 53 56 51 40 42 48 48 55 57 58 57 56 54 54 55
33 30 34 29 28 34 33 31 30 32 38 39 36 37 35 33 35 35 39 41 44 45 43 38 30 38 40 48 51 51 53 54 51 54 47 50 51 55 60 58 56 55 54 56 56
33 35 35 35 37 35 33 28 31 34 35 34 34 37 37 34 36 33 38 39 37 42 38 37 30 36 36 47 50 50 53 55 56 56 55 51 53 61 59 58 57 58 57 57 58
44 43 38 36 32 31 32 33 33 37 38 40 38 35 34 39 42 43 44 44 43 39 38 35 34 32 29 40 46 42 52 53 53 57 58 51 62 57 56 59 58 57 59 60 60
MSLP
1019.71 1019.40 1019.00 1018.70 1018.34 1018.02 1017.87 1017.62 1017.33 1016.97 1016.55 1016.16 1015.81 1015.73 1015.61 1015.54 1014.65 1013.90 1012.69 1010.10 1009.95 1009.89 1009.92 1010.49 1011.00 1011.31 1012.28 1012.32 1012.31 1012.82 1013.80 1013.46 1012.13 1011.43 1009.41 1008.45 1008.20 1007.53 1006.95 1006.96 1006.73 1006.49 1006.46 1005.92 1006.27
1019.52 1019.18 1018.83 1018.46 1018.00 1018.19 1017.80 1017.53 1017.23 1016.87 1016.65 1016.23 1016.06 1015.93 1015.82 1015.04 1014.28 1012.85 1009.61 1009.30 1009.07 1009.39 1010.28 1009.92 1010.73 1011.43 1012.26 1012.27 1012.48 1012.69 1012.68 1011.70 1009.72 1009.61 1008.85 1008.26 1008.37 1007.93 1007.37 1006.80 1006.54 1006.37 1005.75 1005.81 1006.59
1019.72 1019.40 1019.17 1018.79 1018.47 1017.93 1017.65 1017.30 1016.92 1016.70 1016.55 1016.07 1015.85 1015.65 1015.64 1014.97 1013.96 1009.99 1007.79 1008.32 1008.62 1009.22 1009.24 1009.29 1009.95 1010.93 1011.83 1012.07 1011.78 1011.62 1011.00 1009.68 1008.98 1008.54 1008.89 1008.30 1007.77 1007.92 1007.30 1006.78 1006.29 1006.32 1005.93 1005.87 1006.42
1019.38 1019.09 1018.79 1018.49 1018.13 1017.89 1017.42 1017.15 1016.70 1016.59 1016.23 1015.61 1015.44 1015.54 1015.43 1015.07 1012.76 1008.45 1008.30 1008.53 1007.95 1008.94 1008.89 1009.22 1009.80 1010.88 1011.52 1011.22 1011.02 1011.06 1010.22 1009.47 1008.29 1008.37 1008.61 1008.33 1008.00 1007.26 1007.07 1006.34 1005.80 1005.58 1005.53 1005.70 1006.04
1019.32 1018.88 1018.48 1018.15 1017.91 1017.61 1017.43 1017.26 1017.05 1016.54 1015.95 1015.52 1015.58 1015.60 1015.19 1014.50 1011.51 1008.29 1008.07 1008.53 1008.92 1009.05 1009.06 1009.06 1008.83 1009.55 1010.54 1010.20 1010.52 1010.24 1009.41 1008.90 1008.70 1008.43 1007.68 1007.82 1007.56 1007.06 1006.38 1005.16 1005.27 1005.05 1005.03 1005.12 1005.28
1019.30 1018.89 1018.50 1018.07 1017.59 1017.13 1016.77 1016.47 1016.22 1016.07 1015.92 1015.80 1015.55 1015.33 1015.22 1013.09 1010.32 1008.99 1009.13 1008.85 1008.51 1008.74 1009.08 1008.94 1008.11 1008.29 1009.07 1009.39 1009.46 1008.95 1009.15 1008.79 1008.59 1008.01 1007.25 1007.17 1006.97 1006.66 1004.84 1004.63 1004.67 1004.51 1004.47 1004.28 1004.56
1019.14 1018.75 1018.31 1017.79 1017.28 1016.83 1016.41 1016.06 1015.82 1015.62 1015.42 1015.27 1015.16 1014.83 1013.46 1010.07 1009.79 1009.24 1009.40 1009.38 1008.74 1008.10 1008.29 1008.29 1008.07 1008.36 1008.50 1009.04 1008.56 1008.58 1008.83 1008.48 1007.97 1006.86 1006.49 1006.58 1006.41 1005.27 1003.83 1004.45 1004.44 1004.08 1003.83 1003.72 1003.63
1018.89 1018.52 1018.11 1017.62 1017.13 1016.63 1016.07 1015.63 1015.16 1014.75 1014.57 1014.54 1014.43 1014.28 1011.69 1009.98 1009.70 1009.37 1008.86 1008.28 1008.26 1008.51 1008.06 1007.99 1008.12 1008.37 1008.48 1008.58 1008.46 1008.47 1008.52 1008.09 1006.68 1006.17 1006.09 1006.24 1004.95 1003.73 1003.76 1004.03 1003.85 1003.55 1003.34 1003.41 1002.99
1018.70 1018.22 1017.79 1017.28 1016.71 1016.20 1015.66 1015.08 1014.30 1013.84 1013.75 1014.16 1014.46 1014.20 1011.17 1009.59 1009.18 1007.95 1008.30 1007.70 1007.02 1007.86 1008.05 1007.88 1007.99 1008.13 1008.26 1008.86 1009.25 1008.60 1007.90 1007.70 1006.96 1005.84 1006.03 1005.77 1004.61 1003.49 1003.50 1003.69 1003.43 1003.16 1002.83 1002.87 1002.61
1018.62 1018.09 1017.69 1017.20 1016.59 1015.90 1015.26 1014.50 1013.53 1013.26 1013.44 1013.77 1013.97 1013.90 1010.99 1008.96 1008.19 1006.86 1006.17 1006.72 1006.91 1007.27 1007.84 1008.01 1007.87 1007.64 1007.66 1008.04 1006.65 1008.12 1008.13 1007.56 1006.22 1005.75 1005.75 1005.40 1004.80 1003.93 1003.00 1003.48 1002.90 1002.64 1002.50 1002.33 1001.88
1018.47 1017.92 1017.44 1016.93 1016.45 1016.02 1015.47 1014.77 1014.10 1013.76 1013.45 1013.39 1013.08 1012.22 1009.92 1008.26 1007.35 1006.05 1005.92 1006.51 1006.87 1006.86 1007.04 1007.23 1007.42 1005.08 1005.89 1006.76 1007.09 1007.39 1007.47 1006.73 1005.88 1005.93 1005.95 1005.20 1004.80 1004.19 1003.04 1003.10 1002.58 1002.23 1001.98 1001.40 1001.08
1018.21 1017.68 1017.11 1016.61 1016.17 1015.88 1016.01 1015.70 1014.77 1015.26 1013.78 1012.53 1011.44 1010.73 1009.63 1008.89 1008.39 1006.65 1005.74 1006.08 1006.19 1005.39 1006.27 1006.83 1003.84 1004.54 1005.50 1006.04 1006.55 1006.92 1007.10 1006.41 1005.86 1006.14 1006.00 1005.24 1004.70 1003.77 1002.92 1002.05 1001.93 1001.71 1001.24 1000.81 1001.07
1017.95 1017.41 1016.87 1016.34 1015.86 1016.00 1016.17 1015.55 1014.77 1014.71 1014.17 1011.24 1009.06 1008.55 1008.16 1007.61 1007.52 1005.49 1006.12 1004.65 1004.82 1005.15 1004.30 1003.67 1001.72 1004.51 1004.87 1005.38 1006.02 1006.23 1006.34 1005.99 1006.22 1006.20 1005.77 1005.36 1004.68 1003.61 1002.17 1001.73 1001.16 1000.88 1000.60 1000.30 1000.63
1017.68 1017.16 1016.71 1016.26 1016.05 1016.25 1015.83 1015.15 1014.98 1014.67 1013.85 1010.05 1008.39 1007.12 1006.82 1006.84 1005.60 1004.31 1003.96 1003.89 1003.65 1003.56 1004.16 1003.61 1003.65 1003.22 1003.96 1004.23 1004.96 1005.30 1005.16 1005.85 1006.41 1007.01 1006.61 1005.81 1005.04 1004.13 1002.68 1001.40 1000.69 1000.16 999.87 1000.01 1000.43
1017.40 1016.93 1016.52 1016.27 1016.41 1016.07 1015.48 1015.05 1014.63 1014.47 1012.90 1008.44 1007.00 1006.03 1006.00 1006.15 1004.83 1002.18 1002.79 1003.24 1002.50 1002.59 1003.22 1001.54 1002.11 1002.73 1002.66 1001.93 1003.77 1003.78 1004.78 1005.51 1006.22 1006.68 1006.77 1006.27 1006.17 1003.52 1002.69 1001.49 1000.46 999.82 999.41 999.69 1000.54
1017.12 1016.57 1016.12 1016.10 1016.30 1015.58 1015.35 1015.11 1014.86 1014.73 1011.66 1008.35 1007.21 1006.65 1006.13 1005.50 1004.47 1002.93 1002.49 1003.06 1002.22 1002.43 1001.89 1001.34 1001.06 1001.40 1001.14 1002.37 1003.13 1003.75 1004.80 1005.52 1006.22 1006.99 1006.52 1005.95 1006.18 1003.12 1002.20 1000.51 1000.00 999.29 999.48 1000.01 1000.82
1016.66 1016.12 1015.86 1015.68 1015.63 1015.40 1015.37 1015.27 1015.09 1013.43 1010.34 1009.00 1008.27 1007.56 1006.42 1005.49 1003.81 1003.09 1003.17 1002.72 1001.61 1001.86 1001.55 1001.57 1001.14 1000.78 1001.07 1002.24 1002.61 1003.56 1005.02 1006.83 1007.03 1007.45 1006.60 1005.12 1005.12 1001.79 1000.25 999.78 999.32 999.12 999.42 1000.41 1001.86
1016.27 1015.72 1015.35 1015.25 1015.32 1015.38 1015.50 1015.40 1014.50 1012.24 1010.84 1009.75 1009.10 1007.94 1007.08 1006.44 1005.45 1004.60 1003.48 1003.16 1002.55 1001.79 1001.51 1001.41 1001.28 1000.63 1000.14 1000.54 1001.43 1002.69 1004.21 1005.65 1007.00 1006.97 1005.85 1004.10 1003.23 999.69 998.88 998.67 998.48 998.78 999.52 1000.80 1002.37
1016.00 1015.71 1015.55 1015.10 1014.90 1015.25 1015.58 1015.25 1013.80 1012.34 1011.48 1010.70 1009.49 1008.34 1007.71 1007.51 1007.64 1006.69 1004.95 1004.02 1003.28 1002.56 1001.68 1001.17 1000.66 999.40 999.27 999.54 1000.73 1001.92 1003.03 1004.06 1005.52 1005.70 1005.44 1003.84 1001.27 999.13 997.95 997.79 997.96 998.64 999.86 1001.11 1002.42
1016.30 1015.96 1015.61 1015.02 1014.91 1015.05 1015.33 1014.78 1013.62 1012.47 1011.63 1011.06 1010.51 1009.59 1008.92 1008.28 1007.94 1008.46 1006.58 1005.66 1004.80 1003.72 1001.99 1000.83 1000.61 999.33 999.00 999.57 999.70 1000.10 1001.91 1003.84 1004.89 1005.29 1005.13 1003.20 1001.60 999.52 998.20 997.91 998.07 999.09 1000.20 1001.52 1002.43
1016.59 1016.33 1015.73 1015.23 1015.31 1015.30 1015.44 1014.67 1013.54 1012.34 1011.80 1011.43 1010.63 1010.26 1009.57 1008.81 1008.34 1008.65 1008.13 1006.84 1006.36 1004.63 1002.63 1001.69 1001.05 999.78 999.03 998.15 998.94 1000.18 1001.25 1002.15 1003.19 1004.19 1003.98 1003.39 1000.76 998.54 997.96 997.76 998.33 998.76 999.93 1001.41 1001.84
1017.24 1016.85 1015.75 1015.46 1015.93 1016.15 1015.79 1014.78 1013.74 1012.54 1011.77 1011.38 1010.81 1010.48 1009.88 1009.16 1008.85 1008.90 1008.53 1008.86 1008.53 1007.23 1005.42 1003.83 1002.44 1001.02 999.34 997.94 998.19 998.75 999.52 1000.70 1001.88 1002.84 1002.90 1002.21 999.94 997.75 997.37 997.50 998.20 998.98 999.91 1001.34 1002.17
1017.84 1017.45 1016.00 1015.70 1016.30 1016.31 1015.74 1014.94 1014.02 1012.98 1012.01 1011.46 1011.02 1010.46 1010.04 1009.55 1009.12 1008.39 1008.56 1008.75 1009.13 1008.26 1007.05 1005.38 1003.65 1002.36 1000.50 999.12 998.43 998.22 998.83 999.89 1000.66 1001.77 1001.67 1001.63 999.46 997.65 997.35 997.47 998.08 999.19 1000.00 1001.30 1002.15
1018.39 1018.00 1017.14 1016.66 1016.79 1016.65 1016.07 1015.02 1014.26 1013.01 1012.18 1011.63 1011.06 1010.42 1010.08 1009.53 1009.02 1008.63 1008.47 1008.21 1008.64 1008.16 1007.58 1006.25 1004.91 1003.05 1000.47 998.65 998.21 998.34 998.53 999.14 1000.21 1000.75 1000.59 999.05 998.77 997.85 997.58 997.93 998.33 999.11 1000.14 1001.09 1002.01
1018.78 1018.61 1018.18 1017.49 1016.83 1016.49 1016.39 1015.62 1014.45 1013.57 1012.65 1011.85 1011.20 1010.92 1010.76 1010.12 1009.44 1008.78 1008.47 1008.00 1008.04 1008.10 1008.08 1007.47 1006.13 1004.06 1001.68 999.90 998.83 998.00 997.94 998.55 999.01 999.29 999.66 998.73 998.46 997.83 997.55 997.62 998.26 998.77 1000.08 1000.94 1001.71
1019.02 1018.62 1018.01 1017.38 1016.70 1016.23 1015.95 1015.29 1014.66 1013.86 1013.40 1012.19 1011.73 1011.18 1010.88 1010.35 1009.86 1009.20 1008.83 1008.26 1008.10 1008.24 1008.30 1007.57 1006.49 1005.10 1002.66 1000.74 999.22 998.69 998.08 997.98 997.74 998.52 999.02 998.64 997.73 996.90 996.86 997.39 998.47 998.37 999.41 1000.22 1000.91
1018.33 1018.21 1018.03 1017.20 1016.89 1016.41 1015.74 1015.28 1014.65 1014.21 1012.68 1012.23 1011.78 1011.37 1010.70 1009.77 1009.27 1008.87 1008.54 1008.07 1008.35 1008.29 1008.13 1007.99 1007.10 1005.77 1003.74 1001.96 1000.14 998.93 997.35 997.93 998.18 998.36 998.27 998.47 996.48 997.28 997.29 997.31 997.55 997.62 998.41 999.11 999.85
Wind_Speed
16 16 16 17 17 17 18 18 17 18 19 19 19 19 19 18 18 3 9 12 9 8 3 12 5 5 2 3 3 4 2 7 8 7 10 2 3 3 1 4 2 5 6 6 2
17 18 18 18 18 17 17 17 18 18 17 16 16 17 19 19 3 9 13 13 16 13 7 9 9 10 4 6 4 6 7 12 12 9 7 3 2 5 4 9 6 7 8 5 5
16 15 15 16 18 18 19 18 17 18 18 16 16 17 18 15 5 10 9 23 12 17 8 7 10 9 7 4 7 7 15 19 15 15 1 6 9 1 7 15 13 9 14 5 6
17 16 16 16 16 17 18 19 19 18 18 18 17 16 16 2 10 2 10 4 8 14 8 9 9 9 7 11 6 4 13 20 19 13 5 8 5 15 14 18 18 15 11 5 9
19 19 19 18 17 16 16 17 18 18 17 16 16 14 5 4 11 8 17 9 9 5 9 11 13 9 10 7 11 9 13 10 11 11 14 8 12 18 20 24 15 13 9 12 11
18 18 19 19 20 19 17 16 16 17 17 15 14 13 5 18 9 10 13 7 8 5 6 6 9 6 6 7 8 6 15 18 9 21 20 19 15 13 25 18 14 14 14 11 12
18 18 19 20 20 21 19 18 16 16 17 16 14 10 14 25 9 15 19 7 8 7 7 10 7 8 6 3 6 5 7 8 12 15 10 10 13 22 28 9 11 14 14 12 13
20 19 20 20 20 20 21 20 19 21 19 16 13 9 14 4 8 19 15 12 12 10 5 6 11 6 4 2 3 3 2 3 6 4 7 11 12 22 15 9 17 15 13 10 13
20 19 21 22 22 21 21 21 24 23 15 10 7 6 14 8 7 17 17 13 6 8 6 7 6 7 4 8 8 3 11 11 9 7 4 8 13 16 5 5 11 12 13 12 13
20 19 19 20 20 22 21 22 18 4 2 4 5 5 6 5 9 7 8 18 8 6 4 6 5 6 5 9 18 6 5 7 10 2 4 9 15 18 23 9 12 11 12 11 11
22 20 18 19 19 16 12 7 5 2 2 4 7 11 18 6 11 4 3 10 7 5 11 7 8 23 22 15 7 6 14 14 2 4 6 10 9 15 18 7 10 14 15 14 13
22 21 19 18 18 16 3 1 3 2 11 11 20 23 25 15 13 14 8 8 10 19 13 6 30 20 11 14 13 8 12 17 10 3 7 10 13 16 16 16 10 15 19 15 6
21 20 19 18 18 4 0 5 4 7 6 11 13 9 12 13 17 24 8 6 7 13 25 27 21 12 15 10 13 14 18 17 11 7 6 7 13 12 13 9 7 11 12 9 10
20 18 17 17 4 3 4 4 7 5 4 10 4 8 5 7 11 26 8 9 8 19 17 18 21 21 13 19 16 19 16 15 12 4 9 6 7 10 10 17 9 12 9 10 7
20 19 16 9 8 4 4 7 8 1 5 3 3 2 4 7 9 9 24 8 10 10 11 14 18 24 24 24 20 13 7 7 7 7 2 5 6 7 5 10 14 12 11 10 5
19 19 16 4 2 6 5 7 1 2 9 6 6 12 13 9 14 8 7 17 5 6 9 14 5 20 15 8 13 5 3 4 4 1 9 14 7 5 7 12 7 6 5 4 6
20 20 13 5 4 3 3 2 2 5 6 2 8 14 21 13 8 3 8 17 12 12 11 5 9 3 8 15 4 7 8 2 5 1 6 6 7 15 10 9 9 12 8 3 3
21 15 5 5 1 2 2 3 5 4 6 12 14 15 11 14 9 21 6 13 19 1 10 8 6 15 7 11 14 15 10 8 7 4 5 6 9 11 13 14 11 10 4 8 7
17 3 3 3 3 3 3 2 4 3 4 10 12 8 6 12 5 13 7 8 4 20 5 9 8 3 14 8 18 12 12 12 2 2 1 5 8 9 6 9 5 1 4 7 7
6 5 4 6 3 2 2 4 4 5 8 7 5 5 7 11 8 12 7 12 12 10 13 3 3 7 14 8 19 10 12 7 7 7 4 6 5 7 2 6 4 5 8 7 7
3 4 4 5 4 3 0 4 5 8 7 3 3 4 8 12 6 3 8 8 22 25 10 2 3 4 10 14 17 6 7 3 9 5 6 1 8 8 9 9 9 9 9 9 13
2 3 4 3 2 1 3 3 8 7 6 6 5 9 8 9 5 2 5 8 22 19 12 3 2 4 11 8 20 22 16 9 8 5 4 4 8 3 9 7 7 7 8 7 6
4 4 4 0 2 2 4 5 4 5 5 4 5 4 6 7 7 5 3 2 9 17 16 9 5 2 5 3 2 22 19 16 6 4 14 8 7 3 5 6 5 8 9 8 7
3 5 4 4 1 3 6 7 4 6 9 4 5 6 5 6 8 5 8 2 5 13 16 8 4 5 10 6 6 5 15 19 12 5 3 12 1 5 3 7 5 7 7 9 8
3 2 0 4 4 8 5 3 5 5 4 6 4 2 3 4 7 2 7 5 4 8 10 2 4 5 11 13 7 6 13 19 18 21 14 5 8 7 8 9 7 8 9 11 11
2 2 4 5 7 8 4 3 3 5 4 5 3 11 6 4 5 8 9 5 0 1 5 3 5 6 5 7 16 13 10 16 23 21 18 3 11 9 3 6 6 11 12 12 13
1 2 2 5 4 3 2 4 9 12 9 7 9 13 10 12 3 10 9 8 5 3 2 3 4 7 5 7 4 10 18 11 9 12 18 13 24 5 4 8 10 11 13 15 15
Wind_Direction
349 346 343 337 337 339 339 337 332 329 330 333 337 337 336 328 321 280 243 225 193 183 140 135 142 143 118 188 135 113 139 239 237 184 242 158 323 291 48 243 307 215 231 248 71
349 344 340 339 338 331 332 331 328 327 320 322 328 330 329 331 310 238 237 243 209 163 153 149 154 153 180 186 192 164 193 227 220 212 245 292 135 326 338 301 264 272 268 277 156
347 345 344 339 333 333 331 329 324 322 324 324 328 330 327 332 310 249 237 232 213 185 176 162 146 149 168 161 201 199 224 229 262 243 232 279 305 267 281 286 282 269 286 269 175
343 337 337 335 334 330 326 324 325 322 320 328 330 325 323 303 238 150 109 65 234 192 170 165 146 149 198 201 184 218 232 237 249 261 268 257 293 282 284 266 267 279 265 229 198
343 343 342 336 327 322 320 321 318 320 323 320 317 318 357 271 244 275 315 29 66 121 196 191 161 148 186 207 212 237 242 245 252 270 262 265 256 265 278 274 275 269 272 235 220
337 337 337 331 329 326 318 316 314 314 312 309 306 306 244 252 241 304 2 316 187 160 186 207 196 180 192 227 186 198 237 253 264 257 262 267 278 275 268 271 274 273 270 253 218
338 336 332 330 327 324 319 311 304 303 304 300 298 289 257 248 273 294 302 284 313 201 187 207 246 187 169 312 218 222 238 260 248 254 254 263 270 256 265 275 263 267 268 263 226
335 335 332 328 324 323 317 314 305 296 294 289 293 289 257 253 237 265 264 277 237 277 245 204 215 242 190 282 3 193 206 241 254 204 255 156 260 271 267 258 262 266 268 256 244
333 332 333 329 326 323 321 313 302 299 294 264 268 235 271 311 256 245 234 229 243 202 230 262 174 194 139 222 280 246 250 255 287 226 231 176 276 270 256 230 264 267 264 261 261
329 328 328 326 325 322 325 315 305 320 89 153 248 313 252 232 305 237 193 201 214 149 142 196 205 186 181 174 214 202 247 239 236 277 207 260 258 275 279 239 254 265 265 256 254
328 326 324 324 325 322 338 338 14 0 36 217 201 252 299 308 350 301 158 165 197 168 176 183 196 215 205 206 206 203 230 244 249 199 239 241 265 268 280 254 269 274 275 275 264
327 327 325 323 323 323 14 33 23 27 299 253 248 245 249 261 292 293 181 148 186 200 162 173 228 217 190 203 210 211 239 253 268 220 236 272 272 273 277 273 246 265 272 269 246
326 326 326 323 321 35 250 245 332 340 266 280 229 233 232 216 225 259 234 178 179 187 190 202 222 196 194 190 202 215 224 241 248 316 254 311 289 270 280 277 259 251 246 267 232
321 322 325 329 33 285 278 334 330 290 305 273 223 253 202 217 247 232 217 195 195 196 196 234 221 192 193 208 188 221 218 242 265 278 268 140 280 302 301 299 287 280 293 272 241
319 320 318 334 294 283 269 327 318 144 318 246 187 168 273 190 311 242 201 253 201 167 163 211 179 208 207 208 200 234 203 222 231 228 238 253 278 269 272 282 282 276 269 265 226
318 318 320 328 268 241 340 309 104 85 248 302 30 345 335 262 255 285 161 220 181 184 240 218 208 199 201 179 205 136 199 41 37 67 257 260 204 221 226 236 261 265 269 313 131
318 316 305 267 234 150 331 30 101 202 334 357 351 335 323 343 323 181 221 196 187 186 202 163 224 170 152 210 157 135 98 283 337 302 228 191 182 248 255 231 225 256 271 113 206
324 325 324 252 348 246 33 67 218 255 255 352 342 321 328 17 335 337 223 223 237 93 168 170 207 195 173 181 191 196 165 153 200 220 254 159 206 249 224 232 238 249 203 143 171
330 318 315 266 190 163 89 154 227 289 21 338 338 326 339 357 342 347 319 14 240 236 217 178 238 189 189 157 175 197 190 177 20 189 318 225 280 309 226 255 264 161 150 153 161
329 329 306 311 148 149 81 244 271 337 328 324 303 316 331 332 344 350 311 12 349 333 223 226 162 195 210 182 188 156 143 175 202 197 219 272 268 234 231 241 293 229 197 161 149
31 21 289 33 8 57 228 270 296 285 320 304 294 291 299 306 315 21 291 6 8 347 334 7 150 282 140 195 184 165 171 157 166 160 165 274 262 215 229 226 233 221 172 180 158
357 17 291 337 31 10 296 290 311 293 300 265 263 252 255 313 309 244 246 318 346 343 343 312 313 234 214 166 194 199 193 158 187 196 207 162 267 211 229 255 233 225 152 141 168
346 299 303 359 42 329 294 285 264 292 279 312 301 289 309 293 304 224 265 38 328 325 345 342 296 185 4 309 172 201 207 208 115 107 206 207 254 306 329 304 251 191 146 137 151
8 340 325 26 172 291 324 297 293 277 283 268 260 280 315 309 313 291 266 242 357 326 329 354 278 271 217 208 141 148 203 208 198 200 206 223 272 277 280 259 241 143 140 137 145
27 299 293 315 315 311 302 294 291 315 315 299 297 7 332 310 312 2 3 317 31 2 335 8 277 310 301 289 282 171 180 200 203 214 211 222 241 249 248 238 235 138 129 142 151
24 337 324 282 284 318 324 271 320 332 293 303 276 309 309 282 268 285 325 8 149 84 317 297 283 342 284 261 274 266 254 215 199 208 230 243 253 227 266 128 188 153 158 165 172
292 275 265 273 295 288 259 301 306 310 274 231 304 313 304 286 295 287 263 249 220 282 340 287 338 352 302 339 242 258 235 228 208 226 206 195 235 147 201 215 194 166 174 175 180